PAL313 RPMD-VHHH

Flight info

Callsign PAL313
Flight time 2h 45m
Altitude 34000
Route JOFER3P JOFER W8 MCT W11 MIA W16 AVMUP A461 NOMAN V532 DAKTO V525 BETTY BETTY3A
Aircraft A321/M-SDE3FGHIRWY/LB1

Departure

Time 2026-04-30 11:08
Airport Francisco Bangoy International Airport (RPMD)

Arrival

Time 2026-04-30 13:54
Airport Hong Kong International Airport (VHHH)
Time Latitude Longitude Altitude Speed Heading
2026-04-30 11:05 7.12942 125.64867 104 ft 19 kts 140°
2026-04-30 11:05 7.12879 125.64938 104 ft 18 kts 99°
2026-04-30 11:06 7.12998 125.65097 104 ft 25 kts 49°
2026-04-30 11:06 7.13077 125.65196 104 ft 28 kts 48°
2026-04-30 11:06 7.13268 125.65410 104 ft 27 kts 50°
2026-04-30 11:06 7.13372 125.65531 104 ft 20 kts 46°
2026-04-30 11:07 7.13424 125.65576 104 ft 5 kts 77°
2026-04-30 11:07 7.13406 125.65572 104 ft 3 kts 234°
2026-04-30 11:07 7.13388 125.65551 104 ft 3 kts 229°
2026-04-30 11:07 7.13338 125.65492 104 ft 40 kts 229°
2026-04-30 11:08 7.12964 125.65057 104 ft 120 kts 229°
2026-04-30 11:08 7.12274 125.64262 213 ft 172 kts 229°
2026-04-30 11:08 7.11526 125.63399 1069 ft 163 kts 230°
2026-04-30 11:08 7.11011 125.62435 1864 ft 157 kts 269°
2026-04-30 11:09 7.11380 125.61462 2412 ft 154 kts 314°
2026-04-30 11:09 7.12204 125.60730 2641 ft 164 kts 319°
2026-04-30 11:09 7.13093 125.59963 2862 ft 175 kts 318°
2026-04-30 11:09 7.14035 125.59112 3107 ft 189 kts 317°
2026-04-30 11:10 7.15029 125.58180 3374 ft 202 kts 316°
2026-04-30 11:10 7.16082 125.57172 3646 ft 216 kts 316°
2026-04-30 11:10 7.17196 125.56092 3874 ft 233 kts 315°
2026-04-30 11:10 7.18404 125.54913 4154 ft 250 kts 315°
2026-04-30 11:11 7.19693 125.53650 4499 ft 265 kts 315°
2026-04-30 11:11 7.21025 125.52341 5089 ft 269 kts 315°
2026-04-30 11:11 7.22350 125.51037 5753 ft 271 kts 315°
2026-04-30 11:11 7.23696 125.49710 6399 ft 273 kts 315°
2026-04-30 11:12 7.25050 125.48373 7031 ft 275 kts 315°
2026-04-30 11:12 7.26419 125.47022 7658 ft 277 kts 315°
2026-04-30 11:12 7.27779 125.45680 8268 ft 279 kts 315°
2026-04-30 11:12 7.29173 125.44305 8877 ft 281 kts 314°
2026-04-30 11:13 7.30575 125.42921 9472 ft 283 kts 314°
2026-04-30 11:13 7.31993 125.41522 10057 ft 285 kts 314°
2026-04-30 11:13 7.33480 125.40163 10465 ft 295 kts 322°
2026-04-30 11:13 7.35309 125.39093 10711 ft 311 kts 335°
2026-04-30 11:14 7.37427 125.38384 10964 ft 326 kts 342°
2026-04-30 11:14 7.39641 125.37770 11285 ft 336 kts 343°
2026-04-30 11:14 7.41921 125.37155 11812 ft 339 kts 343°
2026-04-30 11:14 7.44199 125.36536 12367 ft 341 kts 343°
2026-04-30 11:15 7.46516 125.35902 12883 ft 345 kts 342°
2026-04-30 11:15 7.48855 125.35255 13382 ft 348 kts 342°
2026-04-30 11:15 7.51187 125.34609 13876 ft 351 kts 342°
2026-04-30 11:15 7.53564 125.33948 14373 ft 355 kts 342°
2026-04-30 11:16 7.55950 125.33284 14858 ft 358 kts 342°
2026-04-30 11:16 7.58353 125.32614 15338 ft 361 kts 342°
2026-04-30 11:16 7.60809 125.31930 15819 ft 365 kts 342°
2026-04-30 11:16 7.63280 125.31241 16292 ft 368 kts 342°
2026-04-30 11:17 7.65744 125.30553 16754 ft 371 kts 342°
2026-04-30 11:17 7.68228 125.29860 17226 ft 374 kts 343°
2026-04-30 11:17 7.70768 125.29151 17702 ft 376 kts 343°
2026-04-30 11:17 7.73291 125.28447 18143 ft 379 kts 343°
2026-04-30 11:18 7.75835 125.27737 18574 ft 382 kts 343°
2026-04-30 11:18 7.80999 125.26294 19419 ft 388 kts 343°
2026-04-30 11:18 7.83627 125.25560 19832 ft 391 kts 343°
2026-04-30 11:19 7.86245 125.24828 20233 ft 393 kts 343°
2026-04-30 11:19 7.88924 125.24079 20634 ft 396 kts 343°
2026-04-30 11:19 7.91590 125.23334 21023 ft 398 kts 343°
2026-04-30 11:19 7.94261 125.22568 21402 ft 401 kts 341°
2026-04-30 11:20 7.96905 125.21636 21776 ft 403 kts 337°
2026-04-30 11:20 7.99470 125.20508 22141 ft 404 kts 333°
2026-04-30 11:20 8.02007 125.19215 22506 ft 406 kts 332°
2026-04-30 11:20 8.04505 125.17905 22855 ft 409 kts 331°
2026-04-30 11:21 8.07034 125.16576 23197 ft 411 kts 332°
2026-04-30 11:21 8.09567 125.15249 23533 ft 413 kts 332°
2026-04-30 11:21 8.12132 125.13908 23863 ft 416 kts 332°
2026-04-30 11:21 8.14716 125.12560 24186 ft 418 kts 332°
2026-04-30 11:22 8.17296 125.11214 24500 ft 420 kts 332°
2026-04-30 11:22 8.19881 125.09867 24807 ft 422 kts 332°
2026-04-30 11:22 8.22495 125.08504 25109 ft 424 kts 332°
2026-04-30 11:22 8.25123 125.07134 25406 ft 426 kts 332°
2026-04-30 11:23 8.27765 125.05756 25698 ft 427 kts 332°
2026-04-30 11:23 8.30389 125.04388 25982 ft 429 kts 332°
2026-04-30 11:23 8.35708 125.01614 26539 ft 433 kts 332°
2026-04-30 11:24 8.38364 125.00229 26810 ft 434 kts 332°
2026-04-30 11:24 8.41058 124.98824 27077 ft 436 kts 332°
2026-04-30 11:24 8.43746 124.97420 27336 ft 438 kts 332°
2026-04-30 11:25 8.49171 124.94587 27845 ft 441 kts 332°
2026-04-30 11:25 8.51895 124.93163 28091 ft 442 kts 332°
2026-04-30 11:25 8.57364 124.90305 28575 ft 445 kts 332°
2026-04-30 11:26 8.62875 124.87422 29036 ft 448 kts 333°
2026-04-30 11:26 8.65673 124.85958 29263 ft 449 kts 333°
2026-04-30 11:26 8.68426 124.84518 29477 ft 451 kts 333°
2026-04-30 11:27 8.71204 124.83064 29692 ft 452 kts 333°
2026-04-30 11:27 8.74012 124.81594 29907 ft 453 kts 333°
2026-04-30 11:27 8.76807 124.80131 30108 ft 454 kts 333°
2026-04-30 11:27 8.79597 124.78670 30321 ft 455 kts 333°
2026-04-30 11:28 8.85212 124.75733 30878 ft 453 kts 333°
2026-04-30 11:28 8.87980 124.74285 31143 ft 452 kts 333°
2026-04-30 11:28 8.90763 124.72828 31398 ft 451 kts 333°
2026-04-30 11:29 8.93563 124.71362 31650 ft 451 kts 333°
2026-04-30 11:29 8.96325 124.69914 31896 ft 450 kts 333°
2026-04-30 11:29 9.01896 124.66997 32335 ft 450 kts 333°
2026-04-30 11:30 9.07434 124.64096 32717 ft 450 kts 332°
2026-04-30 11:30 9.10214 124.62639 32914 ft 450 kts 332°
2026-04-30 11:30 9.12987 124.61185 33111 ft 450 kts 332°
2026-04-30 11:31 9.15732 124.59745 33285 ft 450 kts 332°
2026-04-30 11:31 9.18522 124.58281 33441 ft 450 kts 332°
2026-04-30 11:31 9.21309 124.56818 33593 ft 451 kts 333°
2026-04-30 11:31 9.24096 124.55354 33741 ft 452 kts 332°
2026-04-30 11:32 9.26910 124.53877 33871 ft 452 kts 332°
2026-04-30 11:32 9.32527 124.50926 33882 ft 453 kts 333°
2026-04-30 11:33 9.40931 124.46509 33888 ft 453 kts 333°
2026-04-30 11:33 9.46511 124.43574 33889 ft 453 kts 333°
2026-04-30 11:34 9.52125 124.40620 33890 ft 453 kts 332°
2026-04-30 11:34 9.57686 124.37693 33891 ft 453 kts 333°
2026-04-30 11:35 9.63293 124.34746 33892 ft 452 kts 332°
2026-04-30 11:35 9.68888 124.31802 33896 ft 453 kts 332°
2026-04-30 11:36 9.74499 124.28848 33906 ft 453 kts 332°
2026-04-30 11:36 9.80085 124.25903 33913 ft 453 kts 332°
2026-04-30 11:37 9.85673 124.22957 33917 ft 452 kts 332°
2026-04-30 11:37 9.91282 124.19997 33918 ft 452 kts 332°
2026-04-30 11:38 9.96879 124.17046 33918 ft 452 kts 332°
2026-04-30 11:38 10.02490 124.14088 33918 ft 452 kts 332°
2026-04-30 11:39 10.08075 124.11142 33918 ft 452 kts 332°
2026-04-30 11:39 10.13658 124.08193 33917 ft 452 kts 332°
2026-04-30 11:40 10.19242 124.05242 33918 ft 452 kts 332°
2026-04-30 11:40 10.24804 124.02302 33918 ft 452 kts 332°
2026-04-30 11:41 10.30401 123.99287 33917 ft 452 kts 330°
2026-04-30 11:41 10.35667 123.95874 33918 ft 452 kts 326°
2026-04-30 11:42 10.40895 123.92233 33918 ft 452 kts 325°
2026-04-30 11:42 10.46096 123.88607 33918 ft 452 kts 325°
2026-04-30 11:43 10.51287 123.84995 33918 ft 452 kts 326°
2026-04-30 11:43 10.56486 123.81380 33918 ft 452 kts 325°
2026-04-30 11:44 10.61693 123.77756 33918 ft 452 kts 325°
2026-04-30 11:44 10.66899 123.74133 33918 ft 452 kts 326°
2026-04-30 11:45 10.72108 123.70509 33919 ft 452 kts 326°
2026-04-30 11:45 10.77310 123.66887 33917 ft 452 kts 325°
2026-04-30 11:46 10.82505 123.63268 33918 ft 452 kts 325°
2026-04-30 11:46 10.87698 123.59647 33918 ft 452 kts 325°
2026-04-30 11:47 10.92890 123.56024 33918 ft 452 kts 325°
2026-04-30 11:47 10.98107 123.52384 33918 ft 452 kts 325°
2026-04-30 11:48 11.03297 123.48765 33918 ft 452 kts 325°
2026-04-30 11:48 11.08474 123.45152 33918 ft 452 kts 325°
2026-04-30 11:49 11.13692 123.41508 33918 ft 452 kts 325°
2026-04-30 11:49 11.18861 123.37895 33918 ft 452 kts 325°
2026-04-30 11:50 11.24062 123.34260 33918 ft 452 kts 325°
2026-04-30 11:50 11.29281 123.30608 33918 ft 452 kts 325°
2026-04-30 11:51 11.34461 123.26984 33918 ft 452 kts 325°
2026-04-30 11:51 11.39623 123.23370 33918 ft 452 kts 325°
2026-04-30 11:52 11.44831 123.19721 33918 ft 452 kts 325°
2026-04-30 11:52 11.50020 123.16086 33918 ft 452 kts 325°
2026-04-30 11:53 11.55197 123.12457 33918 ft 452 kts 325°
2026-04-30 11:53 11.60391 123.08813 33918 ft 452 kts 325°
2026-04-30 11:54 11.65595 123.05162 33918 ft 452 kts 325°
2026-04-30 11:54 11.70771 123.01528 33918 ft 452 kts 325°
2026-04-30 11:55 11.75973 122.97875 33918 ft 452 kts 325°
2026-04-30 11:55 11.81136 122.94246 33918 ft 452 kts 325°
2026-04-30 11:56 11.86304 122.90613 33918 ft 452 kts 325°
2026-04-30 11:56 11.91502 122.86958 33918 ft 452 kts 324°
2026-04-30 11:57 11.96711 122.83291 33918 ft 452 kts 324°
2026-04-30 11:57 12.01901 122.79636 33918 ft 452 kts 324°
2026-04-30 11:58 12.07091 122.75980 33918 ft 452 kts 324°
2026-04-30 11:58 12.12247 122.72347 33918 ft 452 kts 324°
2026-04-30 11:59 12.17438 122.68687 33918 ft 452 kts 324°
2026-04-30 11:59 12.22612 122.65037 33918 ft 452 kts 324°
2026-04-30 12:00 12.27828 122.61355 33918 ft 452 kts 324°
2026-04-30 12:00 12.32999 122.57702 33918 ft 452 kts 324°
2026-04-30 12:01 12.38182 122.54040 33918 ft 452 kts 324°
2026-04-30 12:01 12.43398 122.50357 33918 ft 452 kts 324°
2026-04-30 12:02 12.48577 122.46697 33918 ft 452 kts 324°
2026-04-30 12:02 12.53732 122.43050 33918 ft 452 kts 324°
2026-04-30 12:03 12.61516 122.37539 33918 ft 452 kts 324°
2026-04-30 12:04 12.66710 122.33860 33918 ft 452 kts 324°
2026-04-30 12:04 12.71882 122.30194 33918 ft 452 kts 324°
2026-04-30 12:05 12.77037 122.26540 33918 ft 452 kts 324°
2026-04-30 12:05 12.82235 122.22852 33918 ft 452 kts 324°
2026-04-30 12:06 12.87393 122.19190 33918 ft 452 kts 324°
2026-04-30 12:06 12.92572 122.15512 33918 ft 452 kts 324°
2026-04-30 12:07 12.97746 122.11835 33918 ft 452 kts 324°
2026-04-30 12:07 13.02960 122.08128 33917 ft 454 kts 324°
2026-04-30 12:08 13.08180 122.04413 33917 ft 456 kts 325°
2026-04-30 12:08 13.13436 122.00671 33917 ft 457 kts 325°
2026-04-30 12:09 13.18699 121.96925 33918 ft 457 kts 325°
2026-04-30 12:09 13.23924 121.93205 33918 ft 457 kts 325°
2026-04-30 12:10 13.29117 121.89503 33918 ft 457 kts 325°
2026-04-30 12:10 13.34323 121.85791 33918 ft 457 kts 325°
2026-04-30 12:11 13.39553 121.82058 33918 ft 457 kts 325°
2026-04-30 12:11 13.44755 121.78344 33918 ft 457 kts 325°
2026-04-30 12:12 13.49976 121.74613 33918 ft 457 kts 325°
2026-04-30 12:12 13.55221 121.70864 33918 ft 457 kts 325°
2026-04-30 12:13 13.60425 121.67142 33918 ft 457 kts 325°
2026-04-30 12:13 13.65622 121.63422 33918 ft 457 kts 325°
2026-04-30 12:14 13.70841 121.59686 33918 ft 457 kts 325°
2026-04-30 12:14 13.76038 121.55966 33918 ft 457 kts 325°
2026-04-30 12:15 13.81221 121.52253 33918 ft 457 kts 325°
2026-04-30 12:15 13.86463 121.48494 33918 ft 457 kts 325°
2026-04-30 12:16 13.91713 121.44727 33918 ft 457 kts 325°
2026-04-30 12:16 13.96936 121.40977 33918 ft 457 kts 325°
2026-04-30 12:17 14.04715 121.35386 33918 ft 457 kts 325°
2026-04-30 12:17 14.09893 121.31664 33918 ft 457 kts 325°
2026-04-30 12:18 14.15144 121.27888 33918 ft 457 kts 325°
2026-04-30 12:18 14.20351 121.24139 33918 ft 457 kts 325°
2026-04-30 12:19 14.25606 121.20355 33918 ft 457 kts 325°
2026-04-30 12:19 14.30836 121.16586 33918 ft 457 kts 325°
2026-04-30 12:20 14.36045 121.12830 33918 ft 456 kts 325°
2026-04-30 12:20 14.41213 121.09100 33919 ft 456 kts 325°
2026-04-30 12:21 14.46469 121.05305 33919 ft 455 kts 326°
2026-04-30 12:22 14.62201 120.94456 33918 ft 451 kts 327°
2026-04-30 12:23 14.67443 120.90910 33918 ft 451 kts 327°
2026-04-30 12:23 14.72769 120.87299 33918 ft 451 kts 327°
2026-04-30 12:24 14.78034 120.83728 33919 ft 451 kts 327°
2026-04-30 12:24 14.83358 120.80114 33923 ft 451 kts 327°
2026-04-30 12:25 14.88604 120.76548 33929 ft 451 kts 327°
2026-04-30 12:25 14.93923 120.72928 33935 ft 453 kts 328°
2026-04-30 12:26 14.99254 120.69303 33940 ft 457 kts 328°
2026-04-30 12:26 15.04643 120.65640 33943 ft 463 kts 328°
2026-04-30 12:27 15.10066 120.61949 33946 ft 464 kts 328°
2026-04-30 12:27 15.15522 120.58231 33946 ft 465 kts 328°
2026-04-30 12:28 15.21045 120.54737 33946 ft 463 kts 333°
2026-04-30 12:28 15.26755 120.51529 33947 ft 463 kts 334°
2026-04-30 12:29 15.32500 120.48314 33947 ft 463 kts 334°
2026-04-30 12:29 15.38215 120.45100 33946 ft 463 kts 334°
2026-04-30 12:30 15.43919 120.41888 33947 ft 463 kts 334°
2026-04-30 12:30 15.49612 120.38681 33947 ft 463 kts 334°
2026-04-30 12:31 15.55341 120.35453 33946 ft 463 kts 334°
2026-04-30 12:31 15.61056 120.32229 33946 ft 463 kts 333°
2026-04-30 12:32 15.66768 120.29004 33946 ft 463 kts 333°
2026-04-30 12:32 15.72452 120.25798 33946 ft 463 kts 333°
2026-04-30 12:33 15.78133 120.22591 33946 ft 463 kts 333°
2026-04-30 12:33 15.83843 120.19363 33946 ft 463 kts 333°
2026-04-30 12:34 15.89538 120.16142 33946 ft 463 kts 333°
2026-04-30 12:34 15.95235 120.12916 33947 ft 463 kts 333°
2026-04-30 12:35 16.00985 120.09657 33947 ft 463 kts 333°
2026-04-30 12:35 16.06688 120.06424 33948 ft 463 kts 333°
2026-04-30 12:36 16.12370 120.03200 33960 ft 463 kts 333°
2026-04-30 12:36 16.18090 119.99953 33968 ft 463 kts 333°
2026-04-30 12:37 16.23773 119.96725 33972 ft 463 kts 333°
2026-04-30 12:37 16.29492 119.93474 33973 ft 463 kts 333°
2026-04-30 12:38 16.35190 119.90232 33973 ft 463 kts 333°
2026-04-30 12:38 16.40881 119.86993 33973 ft 463 kts 333°
2026-04-30 12:39 16.46575 119.83749 33973 ft 463 kts 333°
2026-04-30 12:39 16.52261 119.80508 33973 ft 463 kts 333°
2026-04-30 12:40 16.57956 119.77260 33973 ft 463 kts 333°
2026-04-30 12:40 16.63656 119.74007 33973 ft 463 kts 333°
2026-04-30 12:41 16.69353 119.70753 33973 ft 463 kts 333°
2026-04-30 12:41 16.75049 119.67497 33973 ft 462 kts 333°
2026-04-30 12:42 16.80726 119.64250 33973 ft 462 kts 333°
2026-04-30 12:42 16.86407 119.60998 33973 ft 462 kts 333°
2026-04-30 12:43 16.92091 119.57743 33973 ft 462 kts 333°
2026-04-30 12:43 16.97796 119.54473 33973 ft 462 kts 333°
2026-04-30 12:44 17.03479 119.51213 33972 ft 464 kts 333°
2026-04-30 12:44 17.09213 119.47922 33972 ft 465 kts 333°
2026-04-30 12:45 17.14909 119.44651 33973 ft 466 kts 333°
2026-04-30 12:45 17.20645 119.41354 33973 ft 467 kts 333°
2026-04-30 12:46 17.26370 119.38062 33973 ft 467 kts 333°
2026-04-30 12:46 17.32119 119.34753 33973 ft 466 kts 333°
2026-04-30 12:47 17.37832 119.31463 33973 ft 467 kts 333°
2026-04-30 12:47 17.43579 119.28149 33973 ft 467 kts 333°
2026-04-30 12:48 17.49326 119.24834 33973 ft 467 kts 333°
2026-04-30 12:48 17.55036 119.21538 33973 ft 466 kts 333°
2026-04-30 12:49 17.60780 119.18220 33973 ft 466 kts 333°
2026-04-30 12:49 17.66490 119.14919 33973 ft 466 kts 333°
2026-04-30 12:50 17.72213 119.11607 33973 ft 466 kts 333°
2026-04-30 12:50 17.77923 119.08300 33973 ft 466 kts 333°
2026-04-30 12:51 17.83676 119.04965 33973 ft 466 kts 333°
2026-04-30 12:51 17.89389 119.01653 33973 ft 466 kts 333°
2026-04-30 12:52 17.95055 118.98207 33973 ft 467 kts 329°
2026-04-30 12:52 18.00330 118.94157 33973 ft 467 kts 321°
2026-04-30 12:53 18.05110 118.89475 33973 ft 467 kts 314°
2026-04-30 12:53 18.09579 118.84463 33974 ft 465 kts 313°
2026-04-30 12:54 18.14038 118.79432 33974 ft 463 kts 313°
2026-04-30 12:54 18.18466 118.74450 33973 ft 462 kts 313°
2026-04-30 12:55 18.22881 118.69488 33973 ft 463 kts 313°
2026-04-30 12:55 18.27288 118.64534 33973 ft 462 kts 313°
2026-04-30 12:56 18.31720 118.59549 33973 ft 462 kts 313°
2026-04-30 12:56 18.36171 118.54539 33973 ft 462 kts 313°
2026-04-30 12:57 18.40578 118.49576 33973 ft 462 kts 313°
2026-04-30 12:57 18.45011 118.44578 33973 ft 462 kts 313°
2026-04-30 12:58 18.49429 118.39593 33973 ft 462 kts 313°
2026-04-30 12:58 18.53849 118.34603 33973 ft 462 kts 313°
2026-04-30 12:59 18.58284 118.29591 33973 ft 462 kts 313°
2026-04-30 12:59 18.62704 118.24593 33973 ft 462 kts 313°
2026-04-30 13:00 18.67116 118.19598 33973 ft 462 kts 313°
2026-04-30 13:00 18.71518 118.14610 33973 ft 462 kts 313°
2026-04-30 13:01 18.75936 118.09602 33973 ft 462 kts 313°
2026-04-30 13:01 18.80351 118.04591 33973 ft 462 kts 313°
2026-04-30 13:02 18.84774 117.99567 33973 ft 462 kts 313°
2026-04-30 13:02 18.89195 117.94542 33973 ft 462 kts 313°
2026-04-30 13:03 18.93606 117.89526 33972 ft 464 kts 313°
2026-04-30 13:03 18.98049 117.84468 33972 ft 466 kts 312°
2026-04-30 13:04 19.02504 117.79391 33972 ft 468 kts 312°
2026-04-30 13:04 19.06991 117.74277 33973 ft 469 kts 312°
2026-04-30 13:05 19.11457 117.69179 33972 ft 469 kts 312°
2026-04-30 13:06 19.18147 117.61534 33973 ft 469 kts 312°
2026-04-30 13:06 19.22596 117.56445 33973 ft 469 kts 312°
2026-04-30 13:07 19.27064 117.51328 33973 ft 469 kts 312°
2026-04-30 13:07 19.31535 117.46206 33973 ft 469 kts 312°
2026-04-30 13:08 19.36018 117.41064 33973 ft 469 kts 312°
2026-04-30 13:08 19.40488 117.35932 33973 ft 469 kts 312°
2026-04-30 13:09 19.44943 117.30814 33973 ft 469 kts 311°
2026-04-30 13:09 19.49391 117.25700 33973 ft 469 kts 311°
2026-04-30 13:10 19.53836 117.20583 33973 ft 469 kts 311°
2026-04-30 13:10 19.58263 117.15483 33973 ft 469 kts 311°
2026-04-30 13:11 19.62567 117.10520 33973 ft 469 kts 311°
2026-04-30 13:11 19.67010 117.05381 33978 ft 467 kts 313°
2026-04-30 13:12 19.71364 117.00350 33990 ft 463 kts 313°
2026-04-30 13:12 19.75711 116.95329 34012 ft 458 kts 314°
2026-04-30 13:13 19.82128 116.87911 34041 ft 450 kts 314°
2026-04-30 13:14 19.88466 116.80569 34050 ft 449 kts 314°
2026-04-30 13:14 19.94776 116.73244 34050 ft 449 kts 314°
2026-04-30 13:15 20.00847 116.65646 34051 ft 450 kts 307°
2026-04-30 13:16 20.04316 116.60130 34054 ft 450 kts 304°
2026-04-30 13:16 20.06012 116.57307 33931 ft 450 kts 304°
2026-04-30 13:16 20.07715 116.54490 34001 ft 450 kts 304°
2026-04-30 13:17 20.12817 116.46088 34041 ft 451 kts 304°
2026-04-30 13:18 20.17924 116.37664 34036 ft 451 kts 304°
2026-04-30 13:18 20.23011 116.29260 34030 ft 451 kts 303°
2026-04-30 13:19 20.26403 116.23646 34029 ft 451 kts 303°
2026-04-30 13:19 20.29781 116.18053 34029 ft 451 kts 303°
2026-04-30 13:20 20.33166 116.12443 34029 ft 451 kts 303°
2026-04-30 13:20 20.36555 116.06820 34029 ft 451 kts 303°
2026-04-30 13:21 20.39930 116.01215 34029 ft 451 kts 303°
2026-04-30 13:22 20.44985 115.92811 34029 ft 451 kts 303°
2026-04-30 13:22 20.50038 115.84397 34029 ft 450 kts 303°
2026-04-30 13:23 20.55103 115.75951 34029 ft 450 kts 303°
2026-04-30 13:24 20.61830 115.64714 34029 ft 450 kts 303°
2026-04-30 13:25 20.68544 115.53474 34029 ft 450 kts 303°
2026-04-30 13:26 20.76966 115.39344 34029 ft 450 kts 303°
2026-04-30 13:27 20.80354 115.33649 33561 ft 451 kts 303°
2026-04-30 13:28 20.85375 115.25200 31445 ft 456 kts 303°
2026-04-30 13:28 20.89019 115.19557 29780 ft 462 kts 309°
2026-04-30 13:28 20.91081 115.16930 29110 ft 460 kts 313°
2026-04-30 13:29 20.95524 115.12084 28023 ft 451 kts 316°
2026-04-30 13:29 20.99963 115.07430 26951 ft 442 kts 317°
2026-04-30 13:30 21.06440 115.00614 25543 ft 425 kts 316°
2026-04-30 13:31 21.10611 114.96214 24673 ft 413 kts 316°
2026-04-30 13:31 21.16720 114.89760 23264 ft 400 kts 316°
2026-04-30 13:32 21.20653 114.85599 22323 ft 393 kts 316°
2026-04-30 13:32 21.24479 114.81548 21391 ft 387 kts 316°
2026-04-30 13:33 21.28341 114.77457 20448 ft 382 kts 316°
2026-04-30 13:33 21.32144 114.73425 19508 ft 378 kts 316°
2026-04-30 13:34 21.34057 114.71395 19031 ft 375 kts 316°
2026-04-30 13:34 21.39604 114.65504 17634 ft 369 kts 316°
2026-04-30 13:35 21.41444 114.63547 17166 ft 367 kts 316°
2026-04-30 13:35 21.45068 114.59694 16238 ft 363 kts 316°
2026-04-30 13:36 21.48919 114.56164 15301 ft 359 kts 329°
2026-04-30 13:36 21.51143 114.55023 14845 ft 357 kts 339°
2026-04-30 13:36 21.55915 114.53353 13941 ft 353 kts 342°
2026-04-30 13:37 21.58278 114.52556 13491 ft 351 kts 342°
2026-04-30 13:37 21.62523 114.50103 12942 ft 334 kts 318°
2026-04-30 13:38 21.65778 114.46455 12996 ft 333 kts 313°
2026-04-30 13:38 21.67368 114.44589 13020 ft 333 kts 313°
2026-04-30 13:38 21.70545 114.40884 13042 ft 333 kts 313°
2026-04-30 13:39 21.73732 114.37187 13046 ft 333 kts 313°
2026-04-30 13:39 21.76863 114.33562 13044 ft 333 kts 313°
2026-04-30 13:40 21.78463 114.31709 13042 ft 333 kts 313°
2026-04-30 13:40 21.80057 114.29862 13036 ft 333 kts 313°
2026-04-30 13:40 21.81665 114.28000 13005 ft 333 kts 313°
2026-04-30 13:40 21.83279 114.26128 12553 ft 336 kts 313°
2026-04-30 13:41 21.84884 114.24268 12066 ft 335 kts 313°
2026-04-30 13:41 21.86505 114.22388 11602 ft 334 kts 313°
2026-04-30 13:41 21.88072 114.20540 11158 ft 332 kts 310°
2026-04-30 13:41 21.89495 114.18541 10717 ft 331 kts 304°
2026-04-30 13:42 21.90708 114.16407 10370 ft 325 kts 300°
2026-04-30 13:42 21.91807 114.14294 10243 ft 314 kts 298°
2026-04-30 13:42 21.93869 114.10279 9950 ft 295 kts 298°
2026-04-30 13:43 21.94883 114.08308 9564 ft 294 kts 298°
2026-04-30 13:43 21.95854 114.06423 9293 ft 289 kts 298°
2026-04-30 13:43 21.96823 114.04544 8892 ft 290 kts 298°
2026-04-30 13:43 21.97817 114.02618 8526 ft 289 kts 298°
2026-04-30 13:44 21.98784 114.00743 8241 ft 286 kts 298°
2026-04-30 13:44 21.99752 113.98851 7768 ft 289 kts 300°
2026-04-30 13:44 22.00736 113.96936 7339 ft 291 kts 300°
2026-04-30 13:44 22.01727 113.95024 7059 ft 287 kts 300°
2026-04-30 13:45 22.03670 113.91267 6371 ft 284 kts 300°
2026-04-30 13:45 22.04627 113.89410 6067 ft 282 kts 300°
2026-04-30 13:45 22.05591 113.87540 5595 ft 286 kts 300°
2026-04-30 13:46 22.06563 113.85650 5183 ft 287 kts 300°
2026-04-30 13:46 22.07536 113.83759 4799 ft 287 kts 300°
2026-04-30 13:46 22.08509 113.81866 4429 ft 287 kts 300°
2026-04-30 13:46 22.09496 113.79948 4061 ft 284 kts 300°
2026-04-30 13:47 22.10514 113.78168 3677 ft 274 kts 312°
2026-04-30 13:47 22.11944 113.76942 3479 ft 254 kts 334°
2026-04-30 13:47 22.13526 113.76120 3445 ft 242 kts 337°
2026-04-30 13:47 22.15043 113.75384 3393 ft 227 kts 337°
2026-04-30 13:48 22.16466 113.74694 3308 ft 219 kts 337°
2026-04-30 13:48 22.17808 113.74034 3240 ft 200 kts 337°
2026-04-30 13:48 22.19054 113.73417 3040 ft 192 kts 339°
2026-04-30 13:48 22.20310 113.73211 2817 ft 178 kts 14°
2026-04-30 13:49 22.21410 113.73727 2544 ft 172 kts 31°
2026-04-30 13:49 22.22436 113.74394 2279 ft 164 kts 33°
2026-04-30 13:49 22.23392 113.75017 2055 ft 158 kts 32°
2026-04-30 13:49 22.24341 113.75610 1852 ft 153 kts 31°
2026-04-30 13:50 22.25183 113.76280 1635 ft 150 kts 57°
2026-04-30 13:50 22.25939 113.78381 1607 ft 150 kts 74°
2026-04-30 13:50 22.26267 113.79467 1600 ft 150 kts 73°
2026-04-30 13:51 22.26609 113.80569 1596 ft 151 kts 73°
2026-04-30 13:51 22.26953 113.81652 1596 ft 151 kts 73°
2026-04-30 13:51 22.27310 113.82736 1428 ft 151 kts 71°
2026-04-30 13:51 22.27680 113.83793 1223 ft 150 kts 71°
2026-04-30 13:52 22.28027 113.84829 1024 ft 149 kts 72°
2026-04-30 13:52 22.28378 113.85918 820 ft 149 kts 72°
2026-04-30 13:52 22.28725 113.86993 660 ft 149 kts 72°
2026-04-30 13:52 22.29078 113.88046 452 ft 149 kts 72°
2026-04-30 13:53 22.29413 113.89124 233 ft 148 kts 73°
2026-04-30 13:53 22.29742 113.90171 65 ft 145 kts 71°
2026-04-30 13:53 22.30054 113.91134 33 ft 119 kts 72°
2026-04-30 13:53 22.30268 113.91811 33 ft 69 kts 71°
2026-04-30 13:54 22.30403 113.92195 33 ft 39 kts 62°
2026-04-30 13:54 22.30536 113.92375 33 ft 13 kts 43°
2026-04-30 13:54 22.30623 113.92393 33 ft 13 kts 342°